EWG6HT EDDF-EDDV

Flight info

Callsign EWG6HT
Flight time 0h 34m
Altitude 22000
Route MARUN3W/25C MARUN Y153 WRB WRB1X
Aircraft A320/M-SDE3FGHIRWY/LB1

Departure

Time 2026-05-03 20:34
Airport Frankfurt Main Airport (EDDF)

Arrival

Time 2026-05-03 21:08
Airport Hannover Airport (EDDV)
Time Latitude Longitude Altitude Speed Heading
2026-05-03 20:15 50.05006 8.57429 356 ft 0 kts 89°
2026-05-03 20:27 50.04992 8.57455 358 ft 6 kts 144°
2026-05-03 20:27 50.04958 8.57481 360 ft 5 kts 141°
2026-05-03 20:28 50.04929 8.57554 356 ft 11 kts 117°
2026-05-03 20:28 50.04896 8.57657 359 ft 10 kts 115°
2026-05-03 20:28 50.04873 8.57744 364 ft 8 kts 111°
2026-05-03 20:28 50.04847 8.57841 359 ft 15 kts 115°
2026-05-03 20:29 50.04761 8.57926 359 ft 16 kts 179°
2026-05-03 20:29 50.04686 8.57812 362 ft 18 kts 252°
2026-05-03 20:29 50.04643 8.57623 360 ft 20 kts 251°
2026-05-03 20:29 50.04563 8.57524 366 ft 15 kts 161°
2026-05-03 20:30 50.04516 8.57550 363 ft 0 kts 159°
2026-05-03 20:30 50.04513 8.57551 361 ft 3 kts 159°
2026-05-03 20:30 50.04468 8.57631 366 ft 17 kts 107°
2026-05-03 20:31 50.04508 8.57845 370 ft 25 kts 72°
2026-05-03 20:31 50.04572 8.58146 367 ft 32 kts 69°
2026-05-03 20:31 50.04645 8.58448 374 ft 23 kts 73°
2026-05-03 20:31 50.04607 8.58593 369 ft 14 kts 148°
2026-05-03 20:32 50.04515 8.58617 371 ft 14 kts 194°
2026-05-03 20:32 50.04471 8.58524 370 ft 0 kts 249°
2026-05-03 20:33 50.04443 8.58409 370 ft 33 kts 250°
2026-05-03 20:33 50.04285 8.57745 363 ft 102 kts 250°
2026-05-03 20:33 50.03966 8.56428 361 ft 157 kts 248°
2026-05-03 20:33 50.03559 8.54776 940 ft 164 kts 249°
2026-05-03 20:34 50.03166 8.53105 1658 ft 163 kts 249°
2026-05-03 20:34 50.02768 8.51418 2190 ft 172 kts 249°
2026-05-03 20:34 50.02198 8.49680 2554 ft 191 kts 231°
2026-05-03 20:34 50.01185 8.48440 3275 ft 195 kts 210°
2026-05-03 20:35 49.99868 8.47876 4041 ft 199 kts 191°
2026-05-03 20:35 49.98507 8.47636 4862 ft 196 kts 193°
2026-05-03 20:35 49.97163 8.47339 5593 ft 194 kts 193°
2026-05-03 20:35 49.95843 8.46972 6351 ft 190 kts 200°
2026-05-03 20:36 49.94607 8.46229 6975 ft 194 kts 204°
2026-05-03 20:36 49.93272 8.45458 7158 ft 219 kts 202°
2026-05-03 20:36 49.91867 8.44500 7058 ft 221 kts 216°
2026-05-03 20:36 49.90880 8.42704 6971 ft 223 kts 243°
2026-05-03 20:37 49.90609 8.40301 6937 ft 234 kts 268°
2026-05-03 20:37 49.91082 8.37839 6944 ft 247 kts 292°
2026-05-03 20:37 49.92257 8.35810 6966 ft 264 kts 320°
2026-05-03 20:37 49.94013 8.34675 6986 ft 287 kts 336°
2026-05-03 20:38 49.95920 8.33626 6993 ft 292 kts 332°
2026-05-03 20:38 49.97805 8.32428 6993 ft 292 kts 330°
2026-05-03 20:38 49.99672 8.31176 7077 ft 296 kts 330°
2026-05-03 20:38 50.01555 8.29894 8016 ft 298 kts 331°
2026-05-03 20:39 50.03557 8.28941 9142 ft 306 kts 345°
2026-05-03 20:39 50.05709 8.28718 10137 ft 316 kts 359°
2026-05-03 20:39 50.07957 8.29303 10603 ft 342 kts 14°
2026-05-03 20:39 50.10283 8.30530 11116 ft 359 kts 17°
2026-05-03 20:40 50.12667 8.31808 11951 ft 364 kts 17°
2026-05-03 20:40 50.15070 8.33095 12662 ft 367 kts 17°
2026-05-03 20:40 50.17486 8.34379 12915 ft 366 kts 17°
2026-05-03 20:40 50.19893 8.35652 13014 ft 366 kts 17°
2026-05-03 20:41 50.22325 8.36929 13504 ft 370 kts 17°
2026-05-03 20:41 50.24767 8.38211 14372 ft 371 kts 16°
2026-05-03 20:41 50.27226 8.39505 15108 ft 376 kts 17°
2026-05-03 20:41 50.29685 8.40802 15798 ft 381 kts 17°
2026-05-03 20:42 50.32211 8.42156 16456 ft 387 kts 17°
2026-05-03 20:42 50.34825 8.43577 16654 ft 408 kts 17°
2026-05-03 20:42 50.37566 8.45073 16803 ft 426 kts 17°
2026-05-03 20:42 50.40095 8.46456 17168 ft 434 kts 17°
2026-05-03 20:43 50.42965 8.48034 17700 ft 440 kts 17°
2026-05-03 20:43 50.45865 8.49634 18264 ft 445 kts 17°
2026-05-03 20:43 50.48806 8.51235 18756 ft 449 kts 16°
2026-05-03 20:43 50.51785 8.52744 19258 ft 452 kts 15°
2026-05-03 20:44 50.54764 8.54160 19744 ft 456 kts 14°
2026-05-03 20:44 50.57820 8.55566 20239 ft 459 kts 14°
2026-05-03 20:44 50.60898 8.56971 20725 ft 463 kts 14°
2026-05-03 20:44 50.64005 8.58408 21199 ft 467 kts 14°
2026-05-03 20:45 50.67126 8.59883 21663 ft 470 kts 15°
2026-05-03 20:45 50.70268 8.61396 21934 ft 473 kts 15°
2026-05-03 20:45 50.73358 8.62902 21991 ft 483 kts 15°
2026-05-03 20:45 50.76651 8.64512 21979 ft 494 kts 15°
2026-05-03 20:46 50.79949 8.66124 21979 ft 498 kts 15°
2026-05-03 20:46 50.83256 8.67786 21977 ft 499 kts 17°
2026-05-03 20:46 50.86527 8.69636 21978 ft 500 kts 19°
2026-05-03 20:46 50.89759 8.71659 21977 ft 500 kts 21°
2026-05-03 20:47 50.92965 8.73793 21981 ft 500 kts 21°
2026-05-03 20:47 50.96167 8.75963 21980 ft 500 kts 21°
2026-05-03 20:47 50.99358 8.78104 21983 ft 500 kts 21°
2026-05-03 20:47 51.02588 8.80222 21985 ft 500 kts 21°
2026-05-03 20:48 51.05770 8.82261 21981 ft 500 kts 20°
2026-05-03 20:48 51.09000 8.84297 21982 ft 500 kts 20°
2026-05-03 20:48 51.12233 8.86322 21978 ft 500 kts 20°
2026-05-03 20:48 51.15468 8.88353 21979 ft 500 kts 20°
2026-05-03 20:49 51.18698 8.90405 21973 ft 500 kts 20°
2026-05-03 20:49 51.21922 8.92480 21970 ft 500 kts 20°
2026-05-03 20:49 51.25145 8.94569 21980 ft 500 kts 21°
2026-05-03 20:49 51.28367 8.96661 21973 ft 500 kts 21°
2026-05-03 20:50 51.31594 8.98752 21969 ft 501 kts 20°
2026-05-03 20:50 51.34823 9.00843 21956 ft 501 kts 20°
2026-05-03 20:50 51.38009 9.02905 21954 ft 501 kts 20°
2026-05-03 20:50 51.41183 9.04963 21960 ft 484 kts 20°
2026-05-03 20:51 51.44340 9.07017 21867 ft 494 kts 21°
2026-05-03 20:51 51.47509 9.09083 21105 ft 490 kts 20°
2026-05-03 20:51 51.50657 9.11142 20239 ft 486 kts 20°
2026-05-03 20:51 51.53785 9.13125 19477 ft 480 kts 19°
2026-05-03 20:52 51.56896 9.14987 18755 ft 474 kts 18°
2026-05-03 20:52 51.59941 9.16737 18043 ft 468 kts 17°
2026-05-03 20:52 51.62990 9.18462 17279 ft 462 kts 17°
2026-05-03 20:52 51.66005 9.20172 16547 ft 456 kts 17°
2026-05-03 20:53 51.68982 9.21843 15842 ft 450 kts 17°
2026-05-03 20:53 51.71887 9.23645 15131 ft 447 kts 25°
2026-05-03 20:53 51.74396 9.26531 14458 ft 443 kts 45°
2026-05-03 20:53 51.76392 9.30271 13756 ft 438 kts 50°
2026-05-03 20:54 51.78329 9.34029 13016 ft 433 kts 50°
2026-05-03 20:54 51.82111 9.41378 11537 ft 423 kts 50°
2026-05-03 20:54 51.84025 9.44951 10800 ft 418 kts 44°
2026-05-03 20:55 51.86319 9.47778 10201 ft 413 kts 31°
2026-05-03 20:55 51.88755 9.50255 9988 ft 413 kts 31°
2026-05-03 20:55 51.91116 9.52701 9935 ft 390 kts 31°
2026-05-03 20:55 51.93281 9.54975 9946 ft 352 kts 31°
2026-05-03 20:56 51.95235 9.57040 9947 ft 321 kts 31°
2026-05-03 20:56 51.97084 9.58989 9957 ft 314 kts 31°
2026-05-03 20:56 51.98912 9.60906 9946 ft 312 kts 31°
2026-05-03 20:56 52.00708 9.62782 9936 ft 312 kts 31°
2026-05-03 20:57 52.02534 9.64687 9824 ft 312 kts 31°
2026-05-03 20:57 52.04356 9.66591 9680 ft 311 kts 31°
2026-05-03 20:57 52.06170 9.68493 9555 ft 310 kts 31°
2026-05-03 20:57 52.07982 9.70397 9418 ft 310 kts 31°
2026-05-03 20:58 52.09795 9.72302 9280 ft 310 kts 31°
2026-05-03 20:58 52.11602 9.74205 9160 ft 309 kts 31°
2026-05-03 20:58 52.13413 9.76111 9041 ft 310 kts 31°
2026-05-03 20:58 52.15197 9.77988 8910 ft 310 kts 31°
2026-05-03 20:59 52.17006 9.79888 8788 ft 309 kts 31°
2026-05-03 20:59 52.18812 9.81790 8654 ft 309 kts 31°
2026-05-03 20:59 52.20613 9.83695 8525 ft 309 kts 31°
2026-05-03 20:59 52.22413 9.85599 8398 ft 308 kts 31°
2026-05-03 21:00 52.24210 9.87498 8269 ft 307 kts 31°
2026-05-03 21:00 52.25422 9.88687 8179 ft 306 kts 25°
2026-05-03 21:00 52.28004 9.90728 7546 ft 309 kts 23°
2026-05-03 21:00 52.29941 9.92240 7026 ft 311 kts 23°
2026-05-03 21:01 52.31871 9.93747 6787 ft 302 kts 24°
2026-05-03 21:01 52.33702 9.95182 6659 ft 290 kts 24°
2026-05-03 21:01 52.35481 9.96586 6501 ft 276 kts 23°
2026-05-03 21:01 52.37191 9.97936 6041 ft 271 kts 23°
2026-05-03 21:02 52.38872 9.99266 5479 ft 270 kts 23°
2026-05-03 21:02 52.40586 10.00621 4793 ft 276 kts 22°
2026-05-03 21:02 52.42372 10.01437 4446 ft 256 kts 354°
2026-05-03 21:02 52.43995 10.00844 4245 ft 230 kts 323°
2026-05-03 21:03 52.45172 9.99330 3942 ft 204 kts 302°
2026-05-03 21:03 52.45874 9.97466 3564 ft 182 kts 281°
2026-05-03 21:03 52.46082 9.95543 3301 ft 168 kts 270°
2026-05-03 21:03 52.46166 9.93715 3033 ft 149 kts 269°
2026-05-03 21:04 52.46231 9.92095 2934 ft 137 kts 267°
2026-05-03 21:04 52.46256 9.90578 2957 ft 131 kts 267°
2026-05-03 21:04 52.46281 9.89108 3011 ft 129 kts 266°
2026-05-03 21:04 52.46332 9.87636 2819 ft 128 kts 265°
2026-05-03 21:05 52.46337 9.86185 2518 ft 127 kts 265°
2026-05-03 21:05 52.46337 9.84745 2156 ft 125 kts 264°
2026-05-03 21:05 52.46346 9.83326 1902 ft 125 kts 266°
2026-05-03 21:05 52.46384 9.81906 1708 ft 129 kts 267°
2026-05-03 21:06 52.46404 9.80456 1416 ft 123 kts 271°
2026-05-03 21:06 52.46447 9.79036 1261 ft 126 kts 269°
2026-05-03 21:06 52.46507 9.77614 1285 ft 126 kts 270°
2026-05-03 21:06 52.46550 9.76179 1044 ft 126 kts 266°
2026-05-03 21:07 52.46557 9.74740 809 ft 126 kts 271°
2026-05-03 21:07 52.46609 9.73283 663 ft 128 kts 272°
2026-05-03 21:07 52.46648 9.71842 455 ft 126 kts 271°
2026-05-03 21:07 52.46682 9.70431 285 ft 125 kts 271°
2026-05-03 21:08 52.46722 9.69035 181 ft 116 kts 271°
2026-05-03 21:08 52.46749 9.67932 180 ft 73 kts 272°
2026-05-03 21:08 52.46766 9.67320 179 ft 45 kts 272°
2026-05-03 21:08 52.46778 9.66839 184 ft 36 kts 272°
2026-05-03 21:09 52.46726 9.66672 183 ft 17 kts 191°
2026-05-03 21:09 52.46595 9.66679 179 ft 21 kts 153°
2026-05-03 21:09 52.46558 9.66886 180 ft 20 kts 89°
2026-05-03 21:09 52.46550 9.67097 182 ft 17 kts 92°
2026-05-03 21:10 52.46545 9.67268 189 ft 14 kts 93°
2026-05-03 21:10 52.46541 9.67425 184 ft 15 kts 92°
2026-05-03 21:10 52.46536 9.67608 184 ft 16 kts 92°
2026-05-03 21:10 52.46531 9.67776 184 ft 14 kts 92°
2026-05-03 21:11 52.46527 9.67949 180 ft 16 kts 92°
2026-05-03 21:11 52.46519 9.68136 179 ft 16 kts 104°
2026-05-03 21:11 52.46460 9.68250 181 ft 12 kts 146°
2026-05-03 21:11 52.46393 9.68328 181 ft 11 kts 142°
2026-05-03 21:12 52.46313 9.68428 182 ft 18 kts 142°
2026-05-03 21:12 52.46206 9.68564 181 ft 21 kts 142°
2026-05-03 21:12 52.46081 9.68721 178 ft 25 kts 142°
2026-05-03 21:12 52.45935 9.68906 177 ft 28 kts 142°
2026-05-03 21:13 52.45842 9.69074 178 ft 14 kts 85°
2026-05-03 21:13 52.45811 9.69206 178 ft 12 kts 138°
2026-05-03 21:13 52.45762 9.69305 179 ft 10 kts 108°
2026-05-03 21:13 52.45756 9.69412 179 ft 9 kts 95°
2026-05-03 21:14 52.45784 9.69484 180 ft 7 kts 52°
2026-05-03 21:14 52.45808 9.69544 179 ft 3 kts 57°
2026-05-03 21:14 52.45809 9.69547 179 ft 0 kts 56°